Location: *
(49.9853°N, 3.5569°E)
Time: 15:10:14
(UTC+00:00)

Meteor 1-15 Rocket - Pass Details

Date: 22 September 2019
Orbit: 840 x 907 km, 81.2° (Epoch: 20 October)

Event Time Altitude Azimuth Distance (km) Brightness Sun altitude
Rises 18:42:26 0° 175° (S) 3,463 7.2 -10.0°
Reaches altitude 10° 18:44:53 10° 172° (S) 2,539 6.5 -10.4°
Maximum altitude 18:50:31 56° 95° (E) 1,059 4.4 -11.3°
Drops below altitude 10° 18:56:17 10° 19° (NNE) 2,593 6.7 -12.2°
Sets 18:58:48 0° 16° (NNE) 3,543 7.4 -12.6°
